H1 CPF 2 NER 2024 10 30 9 304 01 glonass147 H2 2311401 9147 57517 2024 10 30 0 0 0 2024 11 2 23 45 0 900 1 1 0 0 0 1 H9 10 0 60613 0.00000 0 -15209152.246 -20482748.581 494054.049 10 0 60613 900.00000 0 -15255024.833 -20270106.293 -2722078.508 10 0 60613 1800.00000 0 -15022701.843 -19762923.676 -5885367.425 10 0 60613 2700.00000 0 -14479956.303 -19007473.968 -8934379.609 10 0 60613 3600.00000 0 -13605824.476 -18057291.168 -11809873.075 10 0 60613 4500.00000 0 -12391727.574 -16970809.125 -14455950.159 10 0 60613 5400.00000 0 -10842082.940 -15808811.041 -16821147.210 10 0 60613 6300.00000 0 -8974377.201 -14631796.966 -18859439.254 10 0 60613 7200.00000 0 -6818696.504 -13497380.299 -20531139.749 10 0 60613 8100.00000 0 -4416731.762 -12457823.167 -21803677.697 10 0 60613 9000.00000 0 -1820298.794 -11557814.669 -22652236.734 10 0 60613 9900.00000 0 910566.213 -10832585.762 -23060243.552 10 0 60613 10800.00000 0 3709857.761 -10306440.375 -23019695.889 10 0 60613 11700.00000 0 6508105.750 -9991764.763 -22531323.461 10 0 60613 12600.00000 0 9235030.200 -9888556.997 -21604578.328 10 0 60613 13500.00000 0 11822235.919 -9984496.452 -20257454.561 10 0 60613 14400.00000 0 14205835.178 -10255550.385 -18516140.307 10 0 60613 15300.00000 0 16328889.198 -10667091.866 -16414508.710 10 0 60613 16200.00000 0 18143566.773 -11175481.585 -13993457.364 10 0 60613 17100.00000 0 19612930.066 -11730046.300 -11300109.067 10 0 60613 18000.00000 0 20712273.170 -12275369.668 -8386889.583 10 0 60613 18900.00000 0 21429957.977 -12753797.786 -5310500.742 10 0 60613 19800.00000 0 21767713.047 -13108052.592 -2130809.407 10 0 60613 20700.00000 0 21740384.018 -13283841.538 1090325.217 10 0 60613 21600.00000 0 21375147.319 -13232352.207 4290262.279 10 0 60613 22500.00000 0 20710221.762 -12912525.490 7406803.504 10 0 60613 23400.00000 0 19793133.732 -12293010.514 10379406.329 10 0 60613 24300.00000 0 18678610.506 -11353718.223 13150361.740 10 0 60613 25200.00000 0 17426191.632 -10086907.707 15665913.656 10 0 60613 26100.00000 0 16097659.828 -8497759.269 17877298.099 10 0 60613 27000.00000 0 14754400.002 -6604409.982 19741682.379 10 0 60613 27900.00000 0 13454797.423 -4437449.989 21222986.811 10 0 60613 28800.00000 0 12251783.942 -2038900.363 22292573.938 10 0 60613 29700.00000 0 11190634.425 539285.273 22929793.054 10 0 60613 30600.00000 0 10307104.687 3237133.598 23122370.572 10 0 60613 31500.00000 0 9625987.710 5988900.214 22866639.683 10 0 60613 32400.00000 0 9160147.325 8725561.711 22167605.683 10 0 60613 33300.00000 0 8910068.655 11377449.014 21038846.141 10 0 60613 34200.00000 0 8863943.174 13876914.068 19502248.038 10 0 60613 35100.00000 0 8998284.152 16160920.629 17587586.727 10 0 60613 36000.00000 0 9279046.291 18173452.875 15331954.365 10 0 60613 36900.00000 0 9663202.481 19867642.925 12779048.167 10 0 60613 37800.00000 0 10100711.554 21207529.698 9978331.408 10 0 60613 38700.00000 0 10536794.526 22169376.563 6984082.505 10 0 60613 39600.00000 0 10914423.760 22742493.243 3854349.861 10 0 60613 40500.00000 0 11176920.318 22929527.884 649832.041 10 0 60613 41400.00000 0 11270549.925 22746217.127 -2567295.450 10 0 60613 42300.00000 0 11147007.713 22220604.589 -5734584.234 10 0 60613 43200.00000 0 10765686.250 21391760.419 -8790524.622 10 0 60613 44100.00000 0 10095630.215 20308055.547 -11675741.032 10 0 60613 45000.00000 0 9117093.987 19025063.014 -14334147.738 10 0 60613 45900.00000 0 7822634.995 17603174.526 -16714042.167 10 0 60613 46800.00000 0 6217695.051 16105032.421 -18769114.196 10 0 60613 47700.00000 0 4320643.372 14592885.017 -20459351.445 10 0 60613 48600.00000 0 2162277.590 13125976.613 -21751822.722 10 0 60613 49500.00000 0 -215198.194 11758081.862 -22621324.133 10 0 60613 50400.00000 0 -2759677.231 10535288.242 -23050875.029 10 0 60613 51300.00000 0 -5411074.475 9494119.807 -23032053.934 10 0 60613 52200.00000 0 -8103592.386 8660081.055 -22565167.618 10 0 60613 53100.00000 0 -10768234.611 8046682.053 -21659249.719 10 0 60613 54000.00000 0 -13335463.372 7654985.617 -20331888.574 10 0 60613 54900.00000 0 -15737890.215 7473695.338 -18608887.250 10 0 60613 55800.00000 0 -17912888.004 7479780.339 -16523762.042 10 0 60613 56700.00000 0 -19805015.246 7639609.871 -14117088.975 10 0 60613 57600.00000 0 -21368151.442 7910549.186 -11435710.915 10 0 60613 58500.00000 0 -22567254.201 8242948.410 -8531820.884 10 0 60613 59400.00000 0 -23379664.736 8582439.369 -5461939.721 10 0 60613 60300.00000 0 -23795907.452 8872442.118 -2285808.603 10 0 60613 61200.00000 0 -23819950.689 9056773.949 934781.260 10 0 60613 62100.00000 0 -23468918.678 9082249.351 4137198.069 10 0 60613 63000.00000 0 -22772267.935 8901159.838 7259193.633 10 0 60613 63900.00000 0 -21770464.104 8473527.878 10240117.610 10 0 60613 64800.00000 0 -20513216.217 7769038.959 13022097.620 10 0 60613 65700.00000 0 -19057343.891 6768569.711 15551161.948 10 0 60613 66600.00000 0 -17464368.096 5465247.323 17778283.035 10 0 60613 67500.00000 0 -15797927.365 3864995.422 19660321.879 10 0 60613 68400.00000 0 -14121128.054 1986543.266 21160855.742 10 0 60613 69300.00000 0 -12493939.530 -139102.433 22250874.042 10 0 60613 70200.00000 0 -10970742.694 -2469701.385 22909330.070 10 0 60613 71100.00000 0 -9598133.349 -4953296.358 23123538.963 10 0 60613 72000.00000 0 -8413071.003 -7530140.193 22889415.237 10 0 60613 72900.00000 0 -7441448.998 -10134954.079 22211546.099 10 0 60613 73800.00000 0 -6697144.295 -12699424.429 21103099.607 10 0 60613 74700.00000 0 -6181585.340 -15154835.945 19585569.613 10 0 60613 75600.00000 0 -5883854.947 -17434732.823 17688362.248 10 0 60613 76500.00000 0 -5781323.091 -19477498.831 15448231.445 10 0 60613 77400.00000 0 -5840782.550 -21228750.058 12908573.715 10 0 60613 78300.00000 0 -6020039.473 -22643441.657 10118594.978 10 0 60613 79200.00000 0 -6269891.953 -23687601.468 7132364.693 10 0 60613 80100.00000 0 -6536413.411 -24339618.484 4007774.809 10 0 60613 81000.00000 0 -6763444.615 -24591032.491 805423.060 10 0 60613 81900.00000 0 -6895189.205 -24446791.700 -2412558.226 10 0 60613 82800.00000 0 -6878802.932 -23924967.344 -5583705.271 10 0 60613 83700.00000 0 -6666866.798 -23055936.852 -8646434.656 10 0 60613 84600.00000 0 -6219638.884 -21881069.488 -11541240.104 10 0 60613 85500.00000 0 -5506988.743 -20450969.287 -14211850.706 10 0 60614 0.00000 0 -4509931.466 -18823348.908 -16606327.581 10 0 60614 900.00000 0 -3221694.618 -17060622.537 -18678078.520 10 0 60614 1800.00000 0 -1648272.730 -15227320.961 -20386767.446 10 0 60614 2700.00000 0 191557.584 -13387434.254 -21699104.990 10 0 60614 3600.00000 0 2266763.161 -11601795.659 -22589501.301 10 0 60614 4500.00000 0 4535100.698 -9925615.439 -23040569.499 10 0 60614 5400.00000 0 6944641.845 -8406268.190 -23043469.502 10 0 60614 6300.00000 0 9435714.641 -7081426.230 -22598085.273 10 0 60614 7200.00000 0 11943181.304 -5977617.152 -21713031.718 10 0 60614 8100.00000 0 14398958.113 -5109265.739 -20405490.720 10 0 60614 9000.00000 0 16734672.716 -4478260.025 -18700879.147 10 0 60614 9900.00000 0 18884348.098 -4074059.150 -16632354.932 10 0 60614 10800.00000 0 20787001.119 -3874337.734 -14240170.617 10 0 60614 11700.00000 0 22389046.853 -3846138.684 -11570886.825 10 0 60614 12600.00000 0 23646407.910 -3947484.762 -8676461.113 10 0 60614 13500.00000 0 24526240.323 -4129379.650 -5613230.276 10 0 60614 14400.00000 0 25008203.664 -4338112.630 -2440806.460 10 0 60614 15300.00000 0 25085222.385 -4517768.057 779090.616 10 0 60614 16200.00000 0 24763706.966 -4612832.115 3983841.754 10 0 60614 17100.00000 0 24063226.400 -4570785.329 7111152.284 10 0 60614 18000.00000 0 23015646.813 -4344570.071 10100267.320 10 0 60614 18900.00000 0 21663773.545 -3894827.884 12893154.023 10 0 60614 19800.00000 0 20059554.885 -3191811.485 15435627.582 10 0 60614 20700.00000 0 18261923.861 -2216890.328 17678398.972 10 0 60614 21600.00000 0 16334369.315 -963586.068 19578024.570 10 0 60614 22500.00000 0 14342338.399 561905.856 21097739.854 10 0 60614 23400.00000 0 12350579.122 2340730.583 22208161.969 10 0 60614 24300.00000 0 10420533.540 4341923.890 22887848.642 10 0 60614 25200.00000 0 8607889.483 6523475.427 23123703.763 10 0 60614 26100.00000 0 6960391.787 8833861.430 22911222.785 10 0 60614 27000.00000 0 5516002.818 11213983.997 22254574.031 10 0 60614 27900.00000 0 4301487.405 13599437.256 21166514.838 10 0 60614 28800.00000 0 3331479.723 15923007.412 19668144.352 10 0 60614 29700.00000 0 2608069.620 18117303.926 17788497.573 10 0 60614 30600.00000 0 2120924.523 20117413.668 15563988.014 10 0 60614 31500.00000 0 1847940.915 21863468.590 13037709.058 10 0 60614 32400.00000 0 1756397.440 23303020.876 10258606.683 10 0 60614 33300.00000 0 1804560.862 24393127.107 7280538.667 10 0 60614 34200.00000 0 1943677.172 25102054.723 4161237.711 10 0 60614 35100.00000 0 2120263.884 25410539.473 961197.904 10 0 60614 36000.00000 0 2278606.785 25312540.980 -2257494.371 10 0 60614 36900.00000 0 2363355.584 24815464.336 -5432362.606 10 0 60614 37800.00000 0 2322108.450 23939837.875 -8501752.126 10 0 60614 38700.00000 0 2107875.673 22718460.009 -11406028.199 10 0 60614 39600.00000 0 1681317.518 21195050.280 -14088736.706 10 0 60614 40500.00000 0 1012660.655 19422460.672 -16497704.523 10 0 60614 41400.00000 0 83210.929 17460521.694 -18586057.890 10 0 60614 42300.00000 0 -1113602.867 15373613.152 -20313138.625 10 0 60614 43200.00000 0 -2571699.872 13228061.109 -21645300.076 10 0 60614 44100.00000 0 -4272356.733 11089469.797 -22556567.123 10 0 60614 45000.00000 0 -6184757.267 9020100.028 -23029147.106 10 0 60614 45900.00000 0 -8267060.804 7076403.598 -23053781.534 10 0 60614 46800.00000 0 -10467946.039 5306816.651 -22629931.477 10 0 60614 47700.00000 0 -12728566.969 3749904.078 -21765792.667 10 0 60614 48600.00000 0 -14984840.129 2432932.259 -20478139.727 10 0 60614 49500.00000 0 -17169968.094 1370929.412 -18792002.136 10 0 60614 50400.00000 0 -19217094.057 566272.315 -16740177.931 10 0 60614 51300.00000 0 -21061976.442 8815.883 -14362594.338 10 0 60614 52200.00000 0 -22645571.447 -323440.877 -11705527.680 10 0 60614 53100.00000 0 -23916414.988 -463181.771 -8820697.846 10 0 60614 54000.00000 0 -24832703.866 -452144.017 -5764255.279 10 0 60614 54900.00000 0 -25363988.567 -339102.789 -2595680.749 10 0 60614 55800.00000 0 -25492406.549 -177556.406 623379.908 10 0 60614 56700.00000 0 -25213404.346 -23211.552 3830322.509 10 0 60614 57600.00000 0 -24535918.600 68623.664 6962808.352 10 0 60614 58500.00000 0 -23482009.063 45627.302 9959980.460 10 0 60614 59400.00000 0 -22085959.856 -139078.608 12763647.984 10 0 60614 60300.00000 0 -20392887.633 -524704.672 15319415.384 10 0 60614 61200.00000 0 -18456915.937 -1140899.485 17577734.417 10 0 60614 62100.00000 0 -16338992.937 -2006263.889 19494858.866 10 0 60614 63000.00000 0 -14104444.291 -3127336.820 21033684.170 10 0 60614 63900.00000 0 -11820363.449 -4498095.440 22164456.592 10 0 60614 64800.00000 0 -9552947.958 -6099990.654 22865339.307 10 0 60614 65700.00000 0 -7364892.006 -7902516.851 23122825.561 10 0 60614 66600.00000 0 -5312942.700 -9864292.485 22931991.942 10 0 60614 67500.00000 0 -3445720.354 -11934607.123 22296587.699 10 0 60614 68400.00000 0 -1801891.925 -14055371.389 21228958.906 10 0 60614 69300.00000 0 -408771.990 -16163389.602 19749809.103 10 0 60614 70200.00000 0 718592.009 -18192861.619 17887800.942 10 0 60614 71100.00000 0 1577813.545 -20078010.857 15679005.985 10 0 60614 72000.00000 0 2179024.506 -21755729.958 13166212.676 10 0 60614 72900.00000 0 2544203.330 -23168134.675 10398104.981 10 0 60614 73800.00000 0 2706002.554 -24264919.922 7428326.724 10 0 60614 74700.00000 0 2706125.459 -25005419.838 4314448.917 10 0 60614 75600.00000 0 2593320.332 -25360285.617 1116859.461 10 0 60614 76500.00000 0 2421077.060 -25312710.565 -2102403.822 10 0 60614 77400.00000 0 2245123.386 -24859150.401 -5280854.328 10 0 60614 78300.00000 0 2120826.853 -24009507.874 -8356768.778 10 0 60614 79200.00000 0 2100612.613 -22786773.056 -11270386.619 10 0 60614 80100.00000 0 2231506.879 -21226133.509 -13965073.099 10 0 60614 81000.00000 0 2552910.658 -19373590.769 -16388423.136 10 0 60614 81900.00000 0 3094698.890 -17284140.364 -18493284.163 10 0 60614 82800.00000 0 3875726.473 -15019590.936 -20238677.726 10 0 60614 83700.00000 0 4902805.638 -12646113.208 -21590601.641 10 0 60614 84600.00000 0 6170199.290 -10231620.869 -22522696.874 10 0 60614 85500.00000 0 7659653.258 -7843092.532 -23016765.919 10 0 60615 0.00000 0 9340967.514 -5543946.542 -23063132.399 10 0 60615 900.00000 0 11173084.824 -3391576.786 -22660834.560 10 0 60615 1800.00000 0 13105650.159 -1435155.183 -21817648.618 10 0 60615 2700.00000 0 15080979.554 286211.806 -20549941.228 10 0 60615 3600.00000 0 17036354.465 1744892.971 -18882353.429 10 0 60615 4500.00000 0 18906546.727 2925651.351 -16847321.943 10 0 60615 5400.00000 0 20626468.290 3826034.516 -14484446.912 10 0 60615 6300.00000 0 22133834.428 4456220.854 -11839718.217 10 0 60615 7200.00000 0 23371728.314 4838329.494 -8964615.580 10 0 60615 8100.00000 0 24290958.821 5005224.383 -5915100.278 10 0 60615 9000.00000 0 24852112.032 4998864.475 -2750518.615 10 0 60615 9900.00000 0 25027209.836 4868271.338 467560.701 10 0 60615 10800.00000 0 24800905.729 4667201.679 3676551.805 10 0 60615 11700.00000 0 24171167.563 4451624.750 6814075.203 10 0 60615 12600.00000 0 23149418.853 4277112.743 9819174.903 10 0 60615 13500.00000 0 21760133.218 4196255.619 12633504.856 10 0 60615 14400.00000 0 20039899.622 4256210.545 15202461.309 10 0 60615 15300.00000 0 18035998.301 4496489.944 17476238.960 10 0 60615 16200.00000 0 15804547.612 4947081.771 19410790.807 10 0 60615 17100.00000 0 13408299.682 5626981.241 20968673.696 10 0 60615 18000.00000 0 10914177.004 6543195.726 22119764.097 10 0 60615 18900.00000 0 8390652.398 7690264.525 22841831.332 10 0 60615 19800.00000 0 5905080.783 9050313.659 23120958.316 10 0 60615 20700.00000 0 3521092.708 10593643.582 22951802.659 10 0 60615 21600.00000 0 1296156.666 12279825.640 22337693.984 10 0 60615 22500.00000 0 -720590.097 14059262.148 21290566.079 10 0 60615 23400.00000 0 -2490153.732 15875145.805 19830725.433 10 0 60615 24300.00000 0 -3985065.212 17665737.703 17986460.471 10 0 60615 25200.00000 0 -5190275.048 19366869.930 15793498.591 10 0 60615 26100.00000 0 -6103525.336 20914569.306 13294320.793 10 0 60615 27000.00000 0 -6735184.693 22247693.521 10537346.328 10 0 60615 27900.00000 0 -7107553.857 23310470.082 7576002.223 10 0 60615 28800.00000 0 -7253671.646 24054832.145 4467694.907 10 0 60615 29700.00000 0 -7215671.844 24442453.374 1272703.169 10 0 60615 30600.00000 0 -7042760.446 24446396.177 -1946986.595 10 0 60615 31500.00000 0 -6788898.715 24052303.521 -5128880.454 10 0 60615 32400.00000 0 -6510290.061 23259083.420 -8211189.143 10 0 60615 33300.00000 0 -6262777.182 22079056.306 -11134028.671 10 0 60615 34200.00000 0 -6099259.917 20537557.955 -13840585.787 10 0 60615 35100.00000 0 -6067243.513 18672013.471 -16278225.281 10 0 60615 36000.00000 0 -6206621.718 16530520.025 -18399517.313 10 0 60615 36900.00000 0 -6547789.263 14169996.735 -20163164.394 10 0 60615 37800.00000 0 -7110164.540 11653978.244 -21534809.766 10 0 60615 38700.00000 0 -7901186.015 9050143.472 -22487711.168 10 0 60615 39600.00000 0 -8915825.984 6427682.240 -23003266.673 10 0 60615 40500.00000 0 -10136643.509 3854609.181 -23071382.117 10 0 60615 41400.00000 0 -11534375.606 1395136.595 -22690672.728 10 0 60615 42300.00000 0 -13069043.047 -892784.492 -21868494.717 10 0 60615 43200.00000 0 -14691525.331 -2959652.867 -20620805.869 10 0 60615 44100.00000 0 -16345539.451 -4766244.374 -18971857.486 10 0 60615 45000.00000 0 -17969939.837 -6285002.049 -16953723.341 10 0 60615 45900.00000 0 -19501243.033 -7500931.758 -14605674.534 10 0 60615 46800.00000 0 -20876270.925 -8411966.749 -11973412.311 10 0 60615 47700.00000 0 -22034801.015 -9028786.969 -9108173.866 10 0 60615 48600.00000 0 -22922111.763 -9374102.108 -6065728.830 10 0 60615 49500.00000 0 -23491315.271 -9481430.120 -2905286.510 10 0 60615 50400.00000 0 -23705378.543 -9393424.356 311664.086 10 0 60615 51300.00000 0 -23538747.760 -9159821.665 3522558.002 10 0 60615 52200.00000 0 -22978506.940 -8835099.800 6664977.547 10 0 60615 53100.00000 0 -22025022.167 -8475944.672 9677870.287 10 0 60615 54000.00000 0 -20692044.498 -8138635.779 12502737.504 10 0 60615 54900.00000 0 -19006267.545 -7876461.305 15084769.631 10 0 60615 55800.00000 0 -17006358.753 -7737272.657 17373906.535 10 0 60615 56700.00000 0 -14741505.349 -7761281.952 19325802.390 10 0 60615 57600.00000 0 -12269536.044 -7979195.241 20902677.083 10 0 60615 58500.00000 0 -9654696.963 -8410759.871 22074038.535 10 0 60615 59400.00000 0 -6965174.248 -9063786.701 22817263.062 10 0 60615 60300.00000 0 -4270465.794 -9933687.932 23118023.656 10 0 60615 61200.00000 0 -1638710.446 -11003549.756 22970558.968 10 0 60615 62100.00000 0 865915.676 -12244736.821 22377778.623 10 0 60615 63000.00000 0 3185629.168 -13618003.507 21351203.423 10 0 60615 63900.00000 0 5271196.330 -15075066.103 19910741.773 10 0 60615 64800.00000 0 7083729.247 -16560570.912 18084306.558 10 0 60615 65700.00000 0 8596047.848 -18014376.897 15907279.392 10 0 60615 66600.00000 0 9793552.638 -19374058.325 13421831.939 10 0 60615 67500.00000 0 10674572.924 -20577523.521 10676116.558 10 0 60615 68400.00000 0 11250176.928 -21565640.737 7723341.055 10 0 60615 69300.00000 0 11543452.443 -22284761.438 4620744.632 10 0 60615 70200.00000 0 11588288.707 -22689035.253 1428494.191 10 0 60615 71100.00000 0 11427711.030 -22742419.084 -1791478.156 10 0 60615 72000.00000 0 11111838.478 -22420295.387 -4976674.026 10 0 60615 72900.00000 0 10695550.951 -21710630.667 -8065240.961 10 0 60615 73800.00000 0 10235964.264 -20614624.357 -10997174.246 10 0 60615 74700.00000 0 9789820.210 -19146819.506 -13715484.675 10 0 60615 75600.00000 0 9410902.214 -17334669.211 -16167309.283 10 0 60615 76500.00000 0 9147586.321 -15217575.605 -18304943.080 10 0 60615 77400.00000 0 9040631.609 -12845440.350 -20086771.384 10 0 60615 78300.00000 0 9121304.124 -10276786.120 -21478084.351 10 0 60615 79200.00000 0 9409914.364 -7576526.552 -22451757.594 10 0 60615 80100.00000 0 9914831.008 -4813476.945 -22988785.432 10 0 60615 81000.00000 0 10632013.451 -2057708.879 -23078656.166 10 0 60615 81900.00000 0 11545083.871 622141.560 -22719561.828 10 0 60615 82800.00000 0 12625936.753 3161500.145 -21918438.016 10 0 60615 83700.00000 0 13835861.090 5502306.433 -20690832.696 10 0 60615 84600.00000 0 15127128.685 7595189.396 -19060606.160 10 0 60615 85500.00000 0 16444982.173 9401276.412 -17059467.624 10 0 60616 0.00000 0 17729939.144 10893560.514 -14726357.464 10 0 60616 900.00000 0 18920315.944 12057770.196 -12106685.664 10 0 60616 1800.00000 0 19954862.754 12892704.381 -9251444.585 10 0 60616 2700.00000 0 20775400.689 13410022.352 -6216209.457 10 0 60616 3600.00000 0 21329347.305 13633496.860 -3060049.628 10 0 60616 4500.00000 0 21572024.040 13597764.282 155628.678 10 0 60616 5400.00000 0 21468647.519 13346626.118 3368284.527 10 0 60616 6300.00000 0 20995920.268 12930975.189 6515465.066 10 0 60616 7200.00000 0 20143153.484 12406435.728 9536024.297 10 0 60616 8100.00000 0 18912874.487 11830818.462 12371313.465 10 0 60616 9000.00000 0 17320893.339 11261499.238 14966319.547 10 0 60616 9900.00000 0 15395826.032 10752832.644 17270729.619 10 0 60616 10800.00000 0 13178094.417 10353710.045 19239900.762 10 0 60616 11700.00000 0 10718444.838 10105364.963 20835717.305 10 0 60616 12600.00000 0 8076047.330 10039517.851 22027319.701 10 0 60616 13500.00000 0 5316254.316 10176937.779 22791691.978 10 0 60616 14400.00000 0 2508111.484 10526480.803 23114097.566 10 0 60616 15300.00000 0 -278276.571 11084644.858 22988356.097 10 0 60616 16200.00000 0 -2974417.788 11835659.393 22416956.713 10 0 60616 17100.00000 0 -5516031.722 12752105.890 21411006.264 10 0 60616 18000.00000 0 -7845469.998 13796043.378 19990013.646 10 0 60616 18900.00000 0 -9913859.305 14920592.247 18181514.336 10 0 60616 19800.00000 0 -11682879.459 16071910.640 16020541.914 10 0 60616 20700.00000 0 -13126104.019 17191481.393 13548956.140 10 0 60616 21600.00000 0 -14229848.822 18218614.404 10814639.710 10 0 60616 22500.00000 0 -14993494.015 19093060.139 7870578.313 10 0 60616 23400.00000 0 -15429266.845 19757624.990 4773840.999 10 0 60616 24300.00000 0 -15561494.804 20160678.767 1584479.873 10 0 60616 25200.00000 0 -15425360.831 20258448.714 -1635630.073 10 0 60616 26100.00000 0 -15065213.100 20017003.007 -4823988.716 10 0 60616 27000.00000 0 -14532500.684 19413839.392 -7918682.998 10 0 60616 27900.00000 0 -13883422.284 18439010.971 -10859589.869 10 0 60616 28800.00000 0 -13176387.357 17095740.359 -13589546.343 10 0 60616 29700.00000 0 -12469397.064 15400494.896 -16055463.594 10 0 60616 30600.00000 0 -11817455.924 13382518.109 -18209363.084 10 0 60616 31500.00000 0 -11270123.838 11082835.543 -20009314.226 10 0 60616 32400.00000 0 -10869312.329 8552775.052 -21420255.054 10 0 60616 33300.00000 0 -10647418.515 5852062.122 -22414679.713 10 0 60616 34200.00000 0 -10625876.163 3046568.625 -22973179.108 10 0 60616 35100.00000 0 -10814185.563 205807.973 -23084824.033 10 0 60616 36000.00000 0 -11209463.795 -2599719.690 -22747383.024 10 0 60616 36900.00000 0 -11796534.958 -5301222.168 -21967370.421 10 0 60616 37800.00000 0 -12548557.163 -7834237.996 -20759923.374 10 0 60616 38700.00000 0 -13428160.314 -10141078.408 -19148509.815 10 0 60616 39600.00000 0 -14389047.003 -12172986.965 -17164472.732 10 0 60616 40500.00000 0 -15377989.135 -13891927.177 -14846419.383 10 0 60616 41400.00000 0 -16337135.902 -15271923.920 -12239467.157 10 0 60616 42300.00000 0 -17206535.368 -16299903.226 -9394360.865 10 0 60616 43200.00000 0 -17926762.605 -16975996.218 -6366478.922 10 0 60616 44100.00000 0 -18441542.721 -17313295.610 -3214748.251 10 0 60616 45000.00000 0 -18700257.165 -17337076.440 -489.803 10 0 60616 45900.00000 0 -18660226.676 -17083515.439 3213781.999 10 0 60616 46800.00000 0 -18288673.814 -16597964.664 6365581.636 10 0 60616 47700.00000 0 -17564281.694 -15932853.882 9393672.029 10 0 60616 48600.00000 0 -16478282.886 -15145311.676 12239256.818 10 0 60616 49500.00000 0 -15035032.417 -14294606.911 14847121.867 10 0 60616 50400.00000 0 -13252040.757 -13439519.320 17166703.648 10 0 60616 51300.00000 0 -11159465.426 -12635750.557 19153064.104 10 0 60616 52200.00000 0 -8799082.458 -11933484.759 20767753.677 10 0 60616 53100.00000 0 -6222780.616 -11375200.959 21979546.667 10 0 60616 54000.00000 0 -3490640.822 -10993828.627 22765035.767 10 0 60616 54900.00000 0 -668680.167 -10811322.966 23109075.405 10 0 60616 55800.00000 0 2173646.565 -10837718.856 23005066.379 10 0 60616 56700.00000 0 4966085.228 -11070702.287 22455077.166 10 0 60616 57600.00000 0 7640252.432 -11495716.629 21469800.161 10 0 60616 58500.00000 0 10132228.136 -12086598.938 20068343.930 10 0 60616 59400.00000 0 12384964.735 -12806719.578 18277865.412 10 0 60616 60300.00000 0 14350414.117 -13610577.625 16133048.716 10 0 60616 61200.00000 0 15991285.668 -14445785.593 13675439.947 10 0 60616 62100.00000 0 17282363.232 -15255360.749 10952650.043 10 0 60616 63000.00000 0 18211327.069 -15980227.346 8017440.165 10 0 60616 63900.00000 0 18779047.171 -16561825.036 4926706.481 10 0 60616 64800.00000 0 18999336.139 -16944713.958 1740383.334 10 0 60616 65700.00000 0 18898172.254 -17079066.778 -1479714.532 10 0 60616 66600.00000 0 18512425.490 -16922942.268 -4671088.451 10 0 60616 67500.00000 0 17888140.119 -16444243.927 -7771767.896 10 0 60616 68400.00000 0 17078446.203 -15622279.992 -10721514.487 10 0 60616 69300.00000 0 16141188.040 -14448857.796 -13462994.251 10 0 60616 70200.00000 0 15136369.614 -12928864.825 -15942895.033 10 0 60616 71100.00000 0 14123524.916 -11080310.316 -18112966.978 10 0 60616 72000.00000 0 13159124.260 -8933823.899 -19930965.479 10 0 60616 72900.00000 0 12294126.205 -6531630.567 -21361477.973 10 0 60616 73800.00000 0 11571778.600 -3926043.267 -22376618.234 10 0 60616 74700.00000 0 11025761.754 -1177534.682 -22956574.438 10 0 60616 75600.00000 0 10678752.322 1647532.506 -23090000.096 10 0 60616 76500.00000 0 10541468.733 4479423.239 -22774240.038 10 0 60616 77400.00000 0 10612238.683 7247691.399 -22015386.711 10 0 60616 78300.00000 0 10877107.171 9883874.496 -20828165.419 10 0 60616 79200.00000 0 11310480.673 12324109.862 -19235650.331 10 0 60616 80100.00000 0 11876280.339 14511563.543 -17268816.470 10 0 60616 81000.00000 0 12529555.438 16398570.815 -14965936.127 10 0 60616 81900.00000 0 13218488.631 17948399.263 -12371831.306 10 0 60616 82800.00000 0 13886707.900 19136561.080 -9536996.814 10 0 60616 83700.00000 0 14475806.724 19951620.306 -6516611.347 10 0 60616 84600.00000 0 14927965.184 20395462.027 -3369456.320 10 0 60616 85500.00000 0 15188560.225 20483013.363 -156764.219 99